Voltar ao catálogo

IRIDIUM 181

AtivoComunicaçõesPO
NORAD 56726·PAYLOAD·🇺🇸 United States

Lançado May 20, 2023 de Vandenberg Space Force Base

Loading…

Próximas Passagens (próximas 24 horas)

TLE

AtualizadoSource: CelesTrak SupGP

Época: Sep 14, 2026, 21:55 UTC

1 56726C 23068S   26257.91354167 -.00001920  00000+0 -57133-3 0  2575
2 56726  86.4548  19.2736 0002202  99.9849  32.6996 14.43314278    18

Acompanhe IRIDIUM 181 em tempo real com AllMySat

Download on the App Store